Location: Newark
(25.0000°N, 73.5000°E)
Time: 20:08:50
(UTC+00:00)

deb Explorer IX - All Passes

Search period start: 29 July 2021 00:00
Search period end: 08 August 2021 00:00
Orbit: 543 x 1094 km, 38.8° (Epoch: 28 July)

Date Brightness Start Highest point End Pass type
(mag) Time Alt. Az. Time Alt. Az. Time Alt. Az.
29 Jul - 06:25:49 10° S 06:29:18 22° SE 06:33:09 10° E daylight
29 Jul - 08:10:58 10° WSW 08:15:43 64° NNW 08:21:23 10° NE daylight
29 Jul - 09:59:00 10° WNW 10:03:31 26° N 10:08:38 10° NE daylight
29 Jul - 11:47:13 10° NW 11:52:05 24° N 11:57:25 10° ENE daylight
29 Jul - 13:34:08 10° NW 13:40:26 43° NNE 13:47:14 10° E daylight
29 Jul - 15:21:03 10° WNW 15:28:03 68° SW 15:35:16 10° SE visible
29 Jul - 17:10:35 10° W 17:14:54 17° SW 17:19:12 10° S visible
30 Jul - 06:01:56 10° S 06:05:17 21° SE 06:08:56 10° E daylight
30 Jul - 07:47:02 10° WSW 07:51:41 64° NNW 07:57:08 10° NE daylight
30 Jul - 09:35:06 10° WNW 09:39:25 25° N 09:44:18 10° NE daylight
30 Jul - 11:23:15 10° NW 11:27:55 23° N 11:33:04 10° ENE daylight
30 Jul - 13:10:04 10° NW 13:16:13 42° NNE 13:22:56 10° E daylight
30 Jul - 14:56:54 10° WNW 15:03:48 68° SW 15:11:02 10° SE visible
30 Jul - 16:46:20 10° W 16:50:41 17° SW 16:55:01 10° S visible
31 Jul - 05:38:03 10° S 05:41:15 20° SE 05:44:44 10° E daylight
31 Jul - 07:23:08 10° WSW 07:27:38 63° NNW 07:32:53 10° NE daylight
31 Jul - 09:11:11 10° WNW 09:15:19 24° N 09:19:59 10° NE daylight
31 Jul - 10:59:17 10° NW 11:03:46 22° N 11:08:42 10° ENE daylight
31 Jul - 12:46:00 10° NW 12:52:00 41° NNE 12:58:37 10° E daylight
31 Jul - 14:32:46 10° WNW 14:39:32 68° SW 14:46:45 10° SE visible
31 Jul - 16:22:07 10° W 16:26:26 17° SW 16:30:49 10° S visible
01 Aug - 05:14:08 10° S 05:17:14 20° SE 05:20:32 10° E daylight
01 Aug - 06:59:12 10° WSW 07:03:35 62° NNW 07:08:39 10° NE daylight
01 Aug - 08:47:16 10° WNW 08:51:13 23° N 08:55:38 10° NE daylight
01 Aug - 10:35:20 10° NW 10:39:36 21° N 10:44:19 10° NE daylight
01 Aug - 12:21:57 10° NW 12:27:46 41° NNE 12:34:17 10° E daylight
01 Aug - 14:08:38 10° WNW 14:15:16 68° SW 14:22:28 10° SE visible
01 Aug - 15:57:55 10° W 16:02:12 17° SW 16:06:34 10° S visible
02 Aug - 04:50:12 10° S 04:53:12 19° SE 04:56:22 10° E daylight
02 Aug - 06:35:16 10° WSW 06:39:32 61° NNW 06:44:25 10° NE daylight
02 Aug - 08:23:21 10° WNW 08:27:07 22° N 08:31:19 10° NE daylight
02 Aug - 10:11:23 10° NW 10:15:27 20° N 10:19:57 10° NE daylight
02 Aug - 11:57:55 10° NW 12:03:33 40° NNE 12:09:55 10° E daylight
02 Aug - 13:44:31 10° WNW 13:51:00 68° SW 13:58:08 10° SE daylight
02 Aug - 15:33:44 10° W 15:37:57 17° SW 15:42:17 10° S visible
03 Aug - 04:26:14 10° S 04:29:09 19° SE 04:32:12 10° E daylight
03 Aug - 06:11:18 10° WSW 06:15:29 61° NNW 06:20:13 10° NE daylight
03 Aug - 07:59:26 10° WNW 08:03:00 21° N 08:07:00 10° NE daylight
03 Aug - 09:47:27 10° NW 09:51:18 20° N 09:55:33 10° NE daylight
03 Aug - 11:33:53 10° NW 11:39:21 39° NNE 11:45:33 10° E daylight
03 Aug - 13:20:25 10° WNW 13:26:45 68° SW 13:33:48 10° SE daylight
03 Aug - 15:09:34 10° W 15:13:41 17° SW 15:17:57 10° S visible
04 Aug - 04:02:15 10° S 04:05:06 18° SE 04:08:03 10° E daylight
04 Aug - 05:47:20 10° WSW 05:51:26 60° NNW 05:56:00 10° NE daylight
04 Aug - 07:35:30 10° WNW 07:38:55 20° N 07:42:41 10° NE daylight
04 Aug - 09:23:31 10° NW 09:27:09 19° N 09:31:08 10° NE daylight
04 Aug - 11:09:51 10° NW 11:15:08 38° NNE 11:21:10 10° E daylight
04 Aug - 12:56:19 10° WNW 13:02:28 68° SW 13:09:26 10° SE daylight
04 Aug - 14:45:26 10° WSW 14:49:26 16° SW 14:53:36 10° S visible
05 Aug - 03:38:13 10° S 03:41:03 18° SE 03:43:56 10° E daylight
05 Aug - 05:23:20 10° WSW 05:27:23 59° NNW 05:31:49 10° NE daylight
05 Aug - 07:11:34 10° WNW 07:14:49 19° N 07:18:22 10° NE daylight
05 Aug - 08:59:35 10° NW 09:03:00 18° N 09:06:44 10° NE daylight
05 Aug - 10:45:50 10° NW 10:50:55 37° NNE 10:56:47 10° E daylight
05 Aug - 12:32:14 10° WNW 12:38:12 68° SW 12:45:03 10° SE daylight
05 Aug - 14:21:18 10° WSW 14:25:09 16° SW 14:29:12 10° S visible
06 Aug - 03:14:10 10° S 03:16:59 18° SE 03:19:49 10° E daylight
06 Aug - 04:59:19 10° WSW 05:03:20 59° NNW 05:07:38 10° NE daylight
06 Aug - 06:47:37 10° WNW 06:50:43 19° NNW 06:54:04 10° NNE daylight
06 Aug - 08:35:39 10° NNW 08:38:51 17° N 08:42:19 10° NE daylight
06 Aug - 10:21:49 10° NW 10:26:43 36° NNE 10:32:22 10° E daylight
06 Aug - 12:08:09 10° WNW 12:13:57 67° SW 12:20:40 10° SE daylight
06 Aug - 13:57:12 10° WSW 14:00:54 16° SW 14:04:48 10° S daylight
07 Aug - 02:50:05 10° S 02:52:55 18° SE 02:55:44 10° E daylight
07 Aug - 04:35:16 10° WSW 04:39:16 59° NNW 04:43:29 10° NE daylight
07 Aug - 06:23:39 10° NW 06:26:36 18° NNW 06:29:47 10° NNE daylight
07 Aug - 08:11:44 10° NNW 08:14:42 16° N 08:17:56 10° NE daylight
07 Aug - 09:57:47 10° NW 10:02:31 35° NNE 10:07:58 10° E daylight
07 Aug - 11:44:04 10° WNW 11:49:42 67° SW 11:56:15 10° SE daylight
07 Aug - 13:33:07 10° WSW 13:36:38 15° SW 13:40:21 10° S daylight
